Location: Titusville
(28.6120°N, 80.8080°W)
Time: 20:02:00
(UTC-04:00)

Hubble Space Telescope - Visible Passes

Search period start: 18 October 2017 00:00
Search period end: 28 October 2017 00:00
Orbit: 537 x 541 km, 28.5° (Epoch: 18 October)

Date Brightness Start Highest point End Pass type
(mag) Time Alt. Az. Time Alt. Az. Time Alt. Az.
18 Oct 2.6 20:46:06 10° SW 20:48:09 25° SSW 20:48:09 25° SSW visible
19 Oct 1.8 20:35:46 10° SW 20:38:43 37° SSW 20:38:43 37° SSW visible
20 Oct 1.1 20:25:29 10° WSW 20:29:13 53° S 20:29:13 53° S visible
21 Oct 0.8 20:15:14 10° WSW 20:19:19 63° SSE 20:19:41 60° SE visible
22 Oct 0.7 20:05:02 10° WSW 20:09:08 72° S 20:10:06 49° ESE visible
23 Oct 0.7 19:54:50 10° W 19:58:58 80° S 20:00:30 37° E visible
24 Oct 0.7 19:44:40 10° W 19:48:49 85° S 19:50:53 28° E visible
24 Oct 4.0 21:25:54 10° W 21:26:15 12° W 21:26:15 12° W visible
25 Oct 0.7 19:34:30 10° W 19:38:39 89° S 19:41:17 21° E visible
25 Oct 3.6 21:15:45 10° W 21:16:39 16° W 21:16:39 16° W visible
26 Oct 0.7 19:24:20 10° W 19:28:29 90° SW 19:31:42 16° E visible
26 Oct 3.2 21:05:36 10° W 21:07:03 21° W 21:07:03 21° W visible
27 Oct 0.8 19:14:11 10° W 19:18:19 89° SSW 19:22:08 12° E visible
27 Oct 2.8 20:55:28 10° W 20:57:30 27° W 20:57:30 27° W visible
